Regional Weather Roundup
Issued by NWS Little Rock, AR

Home | Current Version | Previous Version | Text Only | Print | Product List | Glossary On
Versions: 1 2 3 4 5 6 7 8 9 10 11 12 13 14 15 16 17 18 19 20 21 22 23 24 25 26 27 28 29 30 31 32 33 34 35 36 37 38 39 40 41 42 43 44 45 46 47 48 49 50
000
ASUS44 KLZK 031205
RWRLZK

WEATHER ROUNDUP FOR ARKANSAS
NATIONAL WEATHER SERVICE LITTLE ROCK AR
700 AM CDT FRI JUL 03 2015

NOTE: "FAIR" INDICATES FEW OR NO CLOUDS BELOW 12,000 FEET WITH NO
SIGNIFICANT WEATHER AND/OR OBSTRUCTIONS TO VISIBILITY.

ARZ001-003-010-029-031300-
NORTHWEST ARKANSAS

CITY           SKY/WX    TMP DP  RH WIND       PRES   REMARKS
FAYETTEVILLE   LGT RAIN  70  69  97 SW6       29.93S
6HR MIN TEMP:  67; 6HR MAX TEMP:  70; 6HR PCP:  0.05;

FORT SMITH     LGT RAIN  70  67  90 NE10      29.91R
6HR MIN TEMP:  70; 6HR MAX TEMP:  76; 6HR PCP:  0.12;

HARRISON       SUNNY     70  67  90 W5        29.94R
6HR MIN TEMP:  67; 6HR MAX TEMP:  71;

BENTONVILLE    MOCLDY    70  64  83 SW5       29.94S
ROGERS         PTCLDY    69  67  93 SW3       29.94R
6HR MIN TEMP:  67; 6HR MAX TEMP:  69;

SILOAM SPGS    MOCLDY    70  64  83 CALM        N/A
6HR MIN TEMP:  66; 6HR MAX TEMP:  70; 6HR PCP:  0.01;

HIGHFILL       MOCLDY    69  68  96 S3        29.93S
6HR MIN TEMP:  67; 6HR MAX TEMP:  69;

SPRINGDALE     MOCLDY    70  68  94 SW5       29.95S
$$

ARZ004-005-016-031300-
NORTH CENTRAL ARKANSAS

CITY           SKY/WX    TMP DP  RH WIND       PRES   REMARKS
BATESVILLE     CLOUDY    72  70  94 S5        29.90R
6HR MIN TEMP:  70; 6HR MAX TEMP:  72;

FLIPPIN        MOSUNNY   70  66  88 CALM      29.89S
6HR MIN TEMP:  70; 6HR MAX TEMP:  72;

MTN HOME       SUNNY     69  67  93 VRB3      29.91R
6HR MIN TEMP:  67; 6HR MAX TEMP:  70;

$$

ARZ040-041-031300-
WEST CENTRAL ARKANSAS

CITY           SKY/WX    TMP DP  RH WIND       PRES   REMARKS
MENA           CLOUDY    77  73  88 SW10      29.95R
MOUNT IDA      LGT RAIN  75  72  90 MISG      29.91R
6HR MIN TEMP:  75; 6HR MAX TEMP:  78; 6HR PCP:  0.11;

$$

ARZ009-017-025-026-028-031300-
NORTHEAST ARKANSAS

CITY           SKY/WX    TMP DP  RH WIND       PRES   REMARKS
JONESBORO      PTSUNNY   73  71  93 W6        29.87S
6HR MIN TEMP:  70; 6HR MAX TEMP:  73; 6HR PCP:  0.02;

NEWPORT        CLOUDY    75  72  91 W7        29.90R
6HR MIN TEMP:  72; 6HR MAX TEMP:  75; 6HR PCP: TRACE;

WALNUT RIDGE   MOSUNNY   72  68  88 W6        29.87S
6HR MIN TEMP:  70; 6HR MAX TEMP:  72;

BLYTHEVILLE    MOSUNNY   72  72 100 NW3       29.88F
6HR MIN TEMP:  71; 6HR MAX TEMP:  73; 6HR PCP: TRACE;

$$

ARZ022-023-033-042-044-031300-
CENTRAL ARKANSAS

CITY           SKY/WX    TMP DP  RH WIND       PRES   REMARKS
LITTLE ROCK    CLOUDY    77  72  84 SW9       29.91S
6HR MIN TEMP:  76; 6HR MAX TEMP:  79; 6HR PCP:  0.02;

N LITTLE ROCK    N/A     75  74  98 SW9       29.91S
6HR MIN TEMP:  74; 6HR MAX TEMP:  76;

JACKSONVILLE   CLOUDY    76  74  94 W3        29.91R
6HR MIN TEMP:  74; 6HR MAX TEMP:  76; 6HR PCP:  0.03;

SEARCY         RAIN      73  69  87 W5        29.91S
6HR MIN TEMP:  72; 6HR MAX TEMP:  78; 6HR PCP:  0.62;

HOT SPRINGS    TSTM      73  70  90 CALM      29.93S
6HR MIN TEMP:  72; 6HR MAX TEMP:  78; 6HR PCP:  0.54;

RUSSELLVILLE   TSTM      73  72  96 NW12G22   29.93R VSB 3/4
6HR MIN TEMP:  73; 6HR MAX TEMP:  74; 6HR PCP:  0.14;

CLINTON        PTSUNNY   72  72 100 CALM      29.91S
$$

ARZ036-031300-
EAST ARKANSAS

CITY           SKY/WX    TMP DP  RH WIND       PRES   REMARKS
WEST MEMPHIS   LGT RAIN  73  73 100 VRB6      29.88S
6HR MIN TEMP:  70; 6HR MAX TEMP:  73; 6HR PCP:  0.56;

$$

ARZ050-053-066-070-073-031300-
SOUTHWEST ARKANSAS

CITY           SKY/WX    TMP DP  RH WIND       PRES   REMARKS
ARKADELPHIA    PTSUNNY   75  75 100 SW5       29.93S FOG
6HR MIN TEMP:  76; 6HR MAX TEMP:  80; 6HR PCP:  0.27;

CAMDEN         CLOUDY    77  70  78 MISG      29.94S
TEXARKANA      CLOUDY    78  72  81 SW14      29.94S
6HR MIN TEMP:  78; 6HR MAX TEMP:  79;

EL DORADO      CLOUDY    76  72  87 SW10      29.96S
6HR MIN TEMP:  76; 6HR MAX TEMP:  78;

DE QUEEN       CLOUDY    77  73  87 SW3       29.92R
6HR MIN TEMP:  75; 6HR MAX TEMP:  77; 6HR PCP: TRACE;

$$

ARZ056-057-069-031300-
SOUTHEAST ARKANSAS

CITY           SKY/WX    TMP DP  RH WIND       PRES   REMARKS
PINE BLUFF     LGT RAIN  76  74  93 SW5       29.94S
6HR MIN TEMP:  76; 6HR MAX TEMP:  80; 6HR PCP:  0.08;

STUTTGART      CLOUDY    75  72  88 SW13      29.90S
6HR MIN TEMP:  75; 6HR MAX TEMP:  81; 6HR PCP:  0.04;

MONTICELLO     CLOUDY    78  74  87 SW8       29.95S
6HR MIN TEMP:  78; 6HR MAX TEMP:  80;


$$





USA.gov is the U.S. government's official web portal to all federal, state and local government web resources and services.